Choose a state:
Most recent flow and stage for Iowa
(Stations highlighted in red are currently above flood stage)
USGS
station
ID
USGS station name NWS
flood
stage
(ft)
Most recent
stage
(ft)
Most recent
flow
(cfs)
Historical
peaks
(cfs)
Most recent
local
date/time
NWS
station
ID
05387320 Upper Iowa River at Lime Springs, IA 10 4.51

 

  2015-03-01 22:00:00 LSPI4
05387405 Upper Iowa River at Kendallville, IA 13 3.58

 

  2015-03-01 22:00:00 KDVI4
05387440 Upper Iowa River at Bluffton, IA 14 3.94 Ice 16,600 2015-03-01 21:45:00 BLFI4
05387490 Dry Run Creek near Decorah, IA   14.32

 

5,820 2015-03-01 21:45:00 DRCI4
05387500 Upper Iowa River at Decorah, IA 12 1.76 Ice 34,100 2015-03-01 21:45:00 DEHI4
05388250 Upper Iowa River near Dorchester, IA 14 7.28 Ice 31,200 2015-03-01 21:00:00 DCHI4
05388310 Waterloo Creek near Dorchester, IA   7.03

 

9,720 2015-02-21 13:15:00  
05389000 Yellow River near Ion, IA   5.04 Ice 21,200 2015-03-01 21:45:00 YRII4
05389400 Bloody Run Creek near Marquette, IA   4.03 12 4,620 2015-03-01 22:00:00 MBRI4
05389500 Mississippi River at McGregor, IA 16 7.90 21,700 276,000 2015-03-01 21:45:00 MCGI4
05411500 Mississippi River at Clayton, IA   12.25

 

  2015-03-01 21:45:00 CLAI4
05411600 Turkey River at Spillville, IA 9 2.75 Ice 10,000 2015-03-01 21:30:00 SPLI4
05411850 Turkey River near Eldorado, IA 13 6.04 Ice 50,100 2015-03-01 21:45:00 EDRI4
05411900 Otter Creek at Elgin, IA   2.71 Ice   2015-03-01 21:00:00  
05412020 Turkey River above French Hollow Cr at Elkader, IA 12 5.44 Ice 40,500 2015-03-01 21:45:00 EKDI4
05412340 Volga River at Fayette, IA 11 3.68 Ice 15,300 2015-03-01 21:30:00 FAYI4
05412400 Volga River at Littleport, IA 12 3.79 Ice 30,000 2015-03-01 21:45:00 VLPI4
05412500 Turkey River at Garber, IA 17 6.19 Ice 66,700 2015-03-01 21:15:00 GRBI4
05414400 Middle Fk Little Maquoketa R nr Rickardsville, IA   9.63

 

23,000 2015-03-01 21:30:00  
05416900 Maquoketa River at Manchester, IA 14 3.53 Ice 26,600 2015-03-01 21:15:00 MCHI4
05418110 NF Maquoketa River below Bear Cr at Dyersville, IA   2.55 Ice 6,190 2015-03-01 21:00:00  
05418400 North Fork Maquoketa River near Fulton, IA   3.47 Ice 25,000 2015-03-01 21:00:00 FLNI4
05418500 Maquoketa River near Maquoketa, IA 24 11.24 Ice 48,000 2015-03-01 21:15:00 MAQI4
05418720 Maquoketa River near Green Island, IA   5.26

 

  2015-03-01 21:00:00  
05420400 Mississippi River at Lock and Dam 13 nr Fulton, IL 16 5.20

 

  2015-02-28 06:30:00 FLTI2
05420460 Beaver Slough at 3rd Street at Clinton, IA   10.70

 

62,100 2015-03-01 21:15:00 CBSI4
05420500 Mississippi River at Clinton, IA 17 9.41 37,400 307,000 2015-03-01 21:30:00 CMMI4
05420680 Wapsipinicon River near Tripoli, IA 15 7.93 Ice 19,400 2015-03-01 21:45:00 TPLI4
05420850 Little Wapsipinicon River near Oran, IA   81.69

 

12,800 2015-03-01 21:15:00  
05421000 Wapsipinicon River at Independence, IA 12 4.49 68 31,100 2015-03-01 21:30:00 IDPI4
05421682 Buffalo Creek South of Prairieburg, IA   4.32 Ice 12,000 2015-03-01 21:30:00 PRAI4
05421740 Wapsipinicon River near Anamosa, IA 14 4.88 Ice 31,800 2015-03-01 21:15:00 ANSI4
05421760 Wapsipinicon River at Oxford Mills, IA   3.39 Ice 23,200 2015-03-01 21:30:00 OXJI4
05421890 Silver Creek at Welton, IA   81.65

 

4,820 2015-03-01 22:00:00  
05422000 Wapsipinicon River near De Witt, IA 11 5.41 Ice 40,900 2015-03-01 21:30:00 DEWI4
05422470 Crow Creek at Bettendorf, IA   7.97 5.2 7,700 2015-03-01 21:00:00 CRWI4
05422560 Duck Creek at 110th Avenue at Davenport, IA   6.11 Bkw 2,670 2015-03-01 21:15:00 WLCI4
05422600 Duck Creek at DC Golf Course at Davenport, IA   3.87 30 7,570 2015-03-01 21:45:00 DKII4
05448400 West Main Drainage Ditch 1 and 2 near Britt, IA   76.79

 

450 2015-03-01 21:15:00 BTDI4
05449500 Iowa River near Rowan, IA 12.5 4.35 Ice 8,460 2015-03-01 22:00:00 ROWI4
05451080 South Fork Iowa River near Blairsburg, IA   4.06 0.21 762 2015-03-01 21:00:00 BLII4
05451210 South Fork Iowa River NE of New Providence, IA   2.76 Ice 7,390 2015-03-01 21:45:00 NPVI4
05451500 Iowa River at Marshalltown, IA 19 10.52 Ice 42,000 2015-03-01 22:00:00 MIWI4
05451700 Timber Creek near Marshalltown, IA   2.74 Ice 12,000 2015-03-01 21:00:00 MTWI4
05451770 Iowa River at County Highway E49 near Tama, IA   3.02 Ice 26,700 2015-03-01 22:00:00 TMAI4
05451900 Richland Creek near Haven, IA   10.66 Ice 12,200 2015-03-01 21:00:00 HAVI4
05452000 Salt Creek near Elberon, IA   6.16 Ice 36,600 2015-03-01 21:00:00 EBRI4
05452200 Walnut Creek near Hartwick, IA   4.25 Ice 8,580 2015-03-01 21:00:00 HRTI4
05452500 Iowa River near Belle Plaine, IA   6.99

 

43,000 2015-03-01 22:00:00  
05453000 Big Bear Creek at Ladora, IA   11.82 Ice 11,200 2015-03-01 21:00:00 LADI4
05453100 Iowa River at Marengo, IA 14 7.20 Ice 51,000 2015-03-01 22:00:00 MROI4
05453200 Price Creek at Amana, IA   81.19

 

5,080 2015-03-01 21:15:00  
05453520 Iowa River below Coralville Dam nr Coralville, IA   49.80 1,140 39,900 2015-03-01 22:00:00 CTWI4
05454000 Rapid Creek near Iowa City, IA   3.78 2.8 6,700 2015-03-01 21:00:00 IRCI4
05454090 Muddy Creek at Coralville, IA   2.81 5.4 2,920 2015-03-01 21:00:00 CMCI4
05454220 Clear Creek near Oxford, IA   2.55 Ice 6,000 2015-03-01 21:45:00 OXFI4
05454300 Clear Creek near Coralville, IA   2.43 Ice 10,200 2015-03-01 22:00:00 CRAI4
05454500 Iowa River at Iowa City, IA 22 10.77 1,180 70,000 2015-03-01 22:00:00 IOWI4
05455010 South Branch Ralston Creek at Iowa City, IA   2.00

 

1,070 2015-03-01 21:45:00  
05455100 Old Mans Creek near Iowa City, IA   3.21 Ice 14,600 2015-03-01 22:00:00 IOCI4
05455230 Deep River at Deep River, IA   67.80

 

6,200 2015-03-01 21:15:00  
05455500 English River at Kalona, IA 14 4.76 Ice 36,100 2015-03-01 22:00:00 KALI4
05455700 Iowa River near Lone Tree, IA 15 5.48 Ice 57,100 2015-03-01 22:00:00 LNTI4
05457505 Cedar River at Osage, IA 22 14.29 Ice 18,200 2015-03-01 21:45:00 OSGI4
05457700 Cedar River at Charles City, IA 12 2.22 Ice 34,600 2015-03-01 21:30:00 CCYI4
05458000 Little Cedar River near Ionia, IA 10 3.05 Ice 24,700 2015-03-01 21:45:00 IONI4
05458300 Cedar River at Waverly, IA 12 3.32 Ice 52,600 2015-03-01 21:15:00 WVLI4
05458500 Cedar River at Janesville, IA 13 1.40 Ice 53,400 2015-03-01 21:45:00 JANI4
05458900 West Fork Cedar River at Finchford, IA 17 6.09 Ice 31,900 2015-03-01 21:45:00 FNHI4
05459490 Spring Creek near Mason City, IA   81.22

 

5,340 2015-03-01 21:45:00  
05459500 Winnebago River at Mason City, IA 10 38.57 Ice 13,100 2015-02-28 02:45:00 MCWI4
05460000 Clear Lake at Clear Lake, IA   4.89

 

  2015-03-01 22:00:00 CLKI4
05460400 Shell Rock River near Rockford, IA   9.01 Ice 17,700 2015-03-01 21:45:00 RKFI4
05462000 Shell Rock River at Shell Rock, IA 13.5 7.60 259 60,400 2015-03-01 21:45:00 SHRI4
05463000 Beaver Creek at New Hartford, IA 12 2.64 Ice 25,900 2015-03-01 22:00:00 NHRI4
05463050 Cedar River at Cedar Falls, IA 88 78.77 Ice 51,200 2015-03-01 21:45:00 CEDI4
05463500 Black Hawk Creek at Hudson, IA 14 5.87 Ice 22,500 2015-03-01 21:45:00 HUDI4
05464000 Cedar River at Waterloo, IA 13 5.47 Ice 112,000 2015-03-01 22:00:00 ALOI4
05464220 Wolf Creek near Dysart, IA   2.42 Ice 15,700 2015-03-01 21:15:00 DYSI4
05464315 Cedar River at Vinton, IA 15 2.75 Ice 63,100 2015-03-01 21:15:00 VINI4
05464420 Cedar River at Blairs Ferry Road at Palo, IA   2.82 Ice 68,100 2015-03-01 21:15:00 PLOI4
05464500 Cedar River at Cedar Rapids, IA 12 3.36 Ice 140,000 2015-03-01 22:00:00 CIDI4
05464695 Indian Creek at Marion, IA   2.16 Ice 4,590 2015-02-27 11:00:00  
05464780 Cedar River at Cedar Bluff, IA   5.09 Ice 66,900 2015-03-01 21:00:00  
05464942 Hoover Cr at Hoover Nat Hist Site, West Branch, IA   1.39 0.66 1,650 2015-03-01 20:45:00  
05465000 Cedar River near Conesville, IA 13 6.33 Ice 127,000 2015-03-01 22:00:00 CNEI4
05465500 Iowa River at Wapello, IA 20 11.73 3,900 188,000 2015-03-01 22:00:00 WAPI4
05465700 Iowa River at Oakville, IA 10 2.07 Ice 188,000 2015-03-01 22:00:00 OKVI4
05469860 Mud Lake Drainage Ditch 71 at Jewell, IA   80.70

 

3,700 2015-03-01 21:15:00  
05469990 Keigley Branch near Story City, IA   82.85

 

3,440 2015-03-01 21:15:00  
05470000 South Skunk River near Ames, IA 12.5 3.32 41 14,800 2015-03-01 22:00:00 AMEI4
05470500 Squaw Creek at Ames, IA 10 1.70 Ice 24,300 2015-03-01 22:00:00 AMWI4
05471000 South Skunk River below Squaw Creek near Ames, IA 21.5 9.89 Ice 36,200 2015-03-01 22:00:00 AESI4
05471050 South Skunk River at Colfax, IA 18 7.89 Ice 24,000 2015-03-01 21:45:00 CFXI4
05471200 Indian Creek near Mingo, IA   4.12 Ice 23,500 2015-03-01 21:15:00 MGOI4
05471500 South Skunk River near Oskaloosa, IA 24.5 9.51 Ice 37,000 2015-03-01 21:30:00 OOAI4
05472500 North Skunk River near Sigourney, IA 16 5.38 239 27,500 2015-03-01 21:30:00 SIGI4
05473065 Skunk River at Merrimac, IA   3.67 Ice 44,700 2015-03-01 21:30:00 MERI4
05473400 Cedar Creek near Oakland Mills, IA   7.74 Ice 20,000 2015-03-01 21:30:00 OKMI4
05473450 Big Creek North of Mount Pleasant, IA   3.33 Ice 9,580 2015-03-01 21:45:00 MBCI4
05474000 Skunk River at Augusta, IA 15 2.45 Ice 66,800 2015-03-01 21:30:00 AGSI4
05476500 Des Moines River at Estherville, IA 8 2.00

 

16,000 2014-10-30 23:30:00 ESVI4
05476590 Des Moines River at Emmetsburg, IA 11 0.30 Ice 7,230 2015-03-01 21:15:00 EMTI4
05476735 Pilot Creek at County Hwy P15 near Rolfe, IA   1.99

 

  2014-10-31 23:45:00 RLFI4
05476750 Des Moines River at Humboldt, IA 10 2.53 Ice 19,000 2015-03-01 21:15:00 HBTI4
05478265 East Fork Des Moines River near Algona, IA 17 7.15 Ice 11,000 2015-03-01 21:15:00 AGNI4
05479000 East Fork Des Moines River at Dakota City, IA 20 8.07 Ice 22,000 2015-03-01 21:00:00 DAKI4
05480080 Lizard Creek near Fort Dodge, IA   5.23

 

  2014-10-31 23:45:00 FLZI4
05480500 Des Moines River at Fort Dodge, IA 10.5 4.47 Ice 36,800 2015-03-01 21:00:00 FODI4
05480820 Boone River near Goldfield, IA   8.42 Ice 6,370 2015-03-01 21:15:00 GLDI4
05481000 Boone River near Webster City, IA 14 2.37 Ice 21,500 2015-03-01 21:00:00 WBCI4
05481300 Des Moines River near Stratford, IA 21 5.74 Ice 58,300 2015-03-01 21:00:00 STRI4
05481510 Bluff Creek at Pilot Mound, IA   80.17

 

1,290 2015-03-01 21:15:00  
05481650 Des Moines River near Saylorville, IA   2.94 629 60,000 2015-03-01 21:00:00 SDTI4
05481950 Beaver Creek near Grimes, IA 14 3.42 Ice 14,300 2015-03-01 21:15:00 GRMI4
05482000 Des Moines River at 2nd Avenue at Des Moines, IA 23 13.04 Ice 60,200 2015-03-01 21:15:00 DMOI4
05482300 North Raccoon River near Sac City, IA 13 7.56 Ice 13,100 2015-03-01 21:15:00 SCRI4
05482315 Black Hawk Lake at Lake View, IA   7.38

 

  2015-03-01 21:15:00 BHLI4
05482430 North Raccoon River near Lanesboro, IA 15 9.45

 

  2014-10-30 23:45:00 LKCI4
05482500 North Raccoon River near Jefferson, IA 19 5.44 Ice 29,100 2015-03-01 21:15:00 EFWI4
05483318 Brushy Fork Creek near Templeton, IA   67.29

 

19,000 2015-03-01 21:00:00  
05483349 Middle Raccoon River Tributary at Carroll, IA   15.37

 

4,600 2015-03-01 21:15:00  
05483450 Middle Raccoon River near Bayard, IA   10.17 Ice 27,500 2015-03-01 21:15:00 BAYI4
05483470 Lake Panorama at Panora, IA   45.54

 

  2015-03-01 21:15:00 PNLI4
05483600 Middle Raccoon River at Panora, IA   4.35 102 22,400 2015-03-01 21:15:00 PANI4
05484000 South Raccoon River at Redfield, IA 20 3.66 Ice 44,000 2015-03-01 21:15:00 REDI4
05484500 Raccoon River at Van Meter, IA 17 3.77 Ice 70,100 2015-03-01 21:00:00 VNMI4
05484600 Raccoon River near West Des Moines, IA   28.30 Ice 2015-03-01 21:45:00 WDMI4
05484650 Raccoon River at 63rd Street at Des Moines, IA 36 23.26 Ice 66,000 2015-03-01 21:15:00 DMWI4
05484800 Walnut Creek at Des Moines, IA 14 3.49 Ice 12,500 2015-03-01 21:45:00 DOSI4
05484900 Raccoon River at Fleur Drive at Des Moines, IA 12 1.54 Ice 67,900 2015-03-01 21:45:00 DEMI4
05485500 Des Moines River blw Raccoon Riv at Des Moines, IA 24 10.88 Ice 116,000 2015-03-01 21:00:00 DESI4
05485605 Fourmile Creek near Ankeny, IA DS1   1.66 Ice 4,730 2015-03-01 21:15:00 ANKI4
05485640 Fourmile Creek at Des Moines, IA 12.5 3.91 Ice 9,620 2015-03-01 21:30:00 DFMI4
05486000 North River near Norwalk, IA 22 6.32 Ice 32,000 2015-03-01 21:15:00 NRWI4
05486490 Middle River near Indianola, IA 23 7.68 Ice 34,000 2015-03-01 21:15:00 IDNI4
05487470 South River near Ackworth, IA 29 6.07 Ice 38,100 2015-03-01 21:15:00 AKWI4
05487520 Des Moines River near Swan, IA   44.43 Ice 55,900 2015-03-01 21:15:00 SWNI4
05487980 White Breast Creek near Dallas, IA   6.49 Ice 37,300 2015-03-01 21:15:00 DLLI4
05488110 Des Moines River near Pella, IA   84.81 1,780 105,000 2015-03-01 21:15:00 RRDI4
05488200 English Creek near Knoxville, IA 21 8.96 Ice 28,000 2015-03-01 21:15:00 KECI4
05488500 Des Moines River near Tracy, IA 14 3.08 1,810 155,000 2015-03-01 21:15:00 TRCI4
05489000 Cedar Creek near Bussey, IA 25 5.38 Ice 96,000 2015-03-01 21:15:00 BSSI4
05489500 Des Moines River at Ottumwa, IA 11 2.09 Ice 140,000 2015-03-01 21:50:00 OTMI4
05490500 Des Moines River at Keosauqua, IA 22 12.98 Ice 146,000 2015-03-01 21:15:00 KEQI4
05494300 Fox River at Bloomfield, IA   3.24 Ice 13,100 2015-03-01 22:00:00 BMFI4
06483290 Rock River below Tom Creek at Rock Rapids, IA 13 7.37 Ice 33,800 2015-03-01 21:15:00 RAPI4
06483495 Burr Oak Creek near Perkins, IA   11.43

 

6,400 2015-03-01 21:45:00  
06483500 Rock River near Rock Valley, IA 16 4.45 Ice 60,600 2015-03-01 22:00:00 RKVI4
06485500 BIG SIOUX R AT AKRON,IA 16 5.80 Ice 108,000 2015-03-01 21:00:00 AKRI4
06485950 BIG SIOUX RIVER AT SIOUX CITY, IA   9.28

 

  2015-03-01 21:30:00  
06486000 Missouri River at Sioux City, IA 30 9.00 21,200 441,000 2015-03-01 22:00:00 SSCN1
06599900 Perry Creek near Millnerville, IA   1.45 Ice 4,690 2015-03-01 21:45:00  
06599950 Perry Creek near Hinton, IA   17.61

 

5,500 2015-03-01 15:25:00  
06600000 Perry Creek at 38th Street at Sioux City, IA 24 6.50

 

9,600 2015-03-01 22:00:00 SIOI4
06600030 Little Floyd River near Sanborn, IA   81.64

 

214 2015-03-01 21:15:00  
06600100 Floyd River at Alton, IA 12 5.65 Ice 45,500 2015-03-01 22:00:00 ALTI4
06600500 Floyd River at James, IA 26 9.61 Ice 71,500 2015-03-01 22:00:00 JMEI4
06601200 Missouri River at Decatur, NE 35 17.83 21,100 191,000 2015-03-01 22:00:00 DCTN1
06602020 West Fork Ditch at Hornick, IA 20 7.93 Ice 12,400 2015-03-01 22:00:00 HOKI4
06602400 Monona-Harrison Ditch near Turin, IA 23 5.59 Ice 21,000 2015-03-01 22:00:00 TRNI4
06604000 Spirit Lake near Orleans, IA 17 13.71

 

  2015-03-01 21:15:00 SLKI4
06604200 West Okoboji Lake at Lakeside Lab near Milford, IA 7.5 3.70

 

  2015-03-01 21:45:00 OBJI4
06604440 Little Sioux River at 300th St near Spencer, IA 10 4.92 Ice 6,020 2015-03-01 21:15:00 LSSI4
06605000 Ocheyedan River near Spencer, IA 8 2.36 Ice 26,000 2015-03-01 21:45:00 SPOI4
06605750 Willow Creek near Cornell, IA   81.34

 

4,200 2015-03-01 21:15:00  
06605850 Little Sioux River at Linn Grove, IA 18 15.36 Ice 22,500 2015-03-01 22:00:00 LNNI4
06606600 Little Sioux River at Correctionville, IA 19 5.27 Ice 29,800 2015-03-01 22:00:00 CRRI4
06607200 Maple River at Mapleton, IA 21 5.90 Ice 20,800 2015-03-01 22:00:00 MAPI4
06607500 Little Sioux River near Turin, IA 25 8.25 Ice 32,000 2015-03-01 22:00:00 TURI4
06608500 Soldier River at Pisgah, IA 28 4.05 Ice 34,700 2015-03-01 22:00:00 PSGI4
06609100 Missouri River at Blair, NE   10.96

 

  2015-03-01 22:00:00  
06609500 Boyer River at Logan, IA 19 4.16 Ice 33,600 2015-03-01 22:00:00 LGNI4
06609560 Willow Creek near Soldier, IA   66.50

 

6,840 2015-03-01 21:00:00  
06610000 Missouri River at Omaha, NE 29 11.22 22,400 396,000 2015-03-01 22:00:00 OMHN1
06610505 Missouri River near Council Bluffs, IA   15.98

 

  2009-09-30 23:30:00  
06610657 Little Pony Creek at Council Bluffs, IA   1.53

 

  2009-09-30 23:45:00  
06805600 Missouri River at Plattsmouth, NE   12.55

 

  2015-03-01 21:00:00  
06805850 Keg Creek at Epperson Avenue near Glenwood, IA   14.78 81 4,900 2015-03-01 21:45:00  
06807000 Missouri River at Nebraska City, NE 18 7.02 28,600 414,000 2015-03-01 22:00:00 NEBN1
06807410 West Nishnabotna River at Hancock, IA 14 3.17 Ice 30,100 2015-03-01 22:00:00 HNKI4
06808500 West Nishnabotna River at Randolph, IA 19 9.58 Ice 40,800 2015-03-01 22:00:00 RDPI4
06808820 West Nishnabotna River near Riverton, IA 21.5 11.47 Ice 23,500 2015-03-01 21:30:00 WNSI4
06809210 East Nishnabotna River near Atlantic, IA 19 3.35 Ice 41,400 2015-03-01 22:00:00 ATCI4
06809500 East Nishnabotna River at Red Oak, IA 18 6.18 Ice 60,500 2015-03-01 22:00:00 RDOI4
06809900 East Nishnabotna River at Riverton, IA 23.5 9.58 Ice 14,700 2015-03-01 21:45:00 ENSI4
06810000 Nishnabotna River above Hamburg, IA 25 9.78 Ice 65,100 2015-03-01 22:00:00 HMBI4
06810070 Missouri River at Brownville, NE 33 22.40

 

  2015-03-01 21:15:00 BRON1
06811800 East Tarkio Creek near Stanton, IA   0.63

 

4,790 2015-03-01 21:30:00  
06811875 Snake Creek near Yorktown, IA   79.95

 

3,080 2015-03-01 21:45:00  
06813500 Missouri River at Rulo, NE 17 6.07 28,200 358,000 2015-03-01 21:30:00 RULN1
06817000 Nodaway River at Clarinda, IA 23 10.70 Ice 47,900 2015-03-01 21:15:00 ICLI4
06819185 East Fork 102 River at Bedford, IA 24 11.05 7.1 10,300 2015-03-01 21:45:00 BDFI4
06898000 Thompson River at Davis City, IA 12 1.24 Ice 57,000 2015-03-01 21:00:00 DVSI4
06903400 Chariton River near Chariton, IA 19.5 5.24 11 37,700 2015-03-01 21:45:00 CHTI4
06903700 South Fork Chariton River near Promise City, IA 25 3.17 Ice 70,600 2015-03-01 21:45:00 PRMI4
06903880 Rathbun Lake near Rathbun, IA   904.35

 

  2015-03-01 21:45:00 RADI4
06903900 Chariton River near Rathbun, IA   4.08 253 21,800 2015-03-01 22:00:00 RABI4
06904010 Chariton River near Moulton, IA 36 20.34 274 21,200 2015-03-01 21:45:00 MOLI4